DECAYED

FALCON 9 R/B, 40108 (Decayed)

Orbit data source: Space-Track

FALCON 9 R/B, 40108 was space debris in LEO originally from a launch on Tue, 05 Aug 2014 UTC launched from the Air Force Eastern Test Range (AFETR). Debris objects in space refer to the collection of defunct objects orbiting the Earth. Examples of debris include non-operational satellites, rocket bodies, and fragments generated from explosions, collisions, or faulty payload assembly.

Not visible in the next 10 days
Identifier
40108, 2014-046B
Orbit
Decayed
Country
Flag of USUS
Related business
Manufacturer
SpaceX
Mission
Decayed spacecraft
Bus & Motor
F9ST2, Unknown motor
Mass
~4,000 kg wet, ~4,000 kg dry
Launch date (UTC)
2014-08-05 (12 years ago)
Launch vehicle
Unknown
Launch site
Air Force Eastern Test Range (AFETR)
Object type
Payload
Rocket body
Debris
Shape & HBR
Cyl, 7.3 m
Radar Cross Section
46.370 m², Large (>1 m²)

Expand to show TLE details & history
Last TLE update: 1 year ago

TLE from 1 year ago
0 FALCON 9 R/B
1 40108U 14046B   25133.90829822  .25060593 -11394-4  75566-3 0  9997
2 40108  24.0450 299.6206 0463159 324.4469  32.5595 15.44368041155527
Epoch: 2025-05-13T21:47Z
TLE epoch observation values (Epoch: 2025-05-13T21:47:56.966Z)
Latitude
-0.01817°
Longitude
100.69248°
Altitude
169.776 km
Speed
7.955 km/s
True Right ascension
19h 58m 19s
True Declination
0° 01' 05"
Sunlit
Object was in full shadow at epoch
Visualization orbit readout
Latitude
Unknown
Longitude
Unknown
Altitude
Unknown
Speed
Unknown
Apparent Right ascension
Unknown
Apparent Declination
Unknown
Sunlit
N/A
Visualization observer readout
Local Sidereal Time
21:37:43
Azimuth
Unknown
Elevation
Unknown
Doppler factor
Unknown
Orbital elements
Apogee altitude
753.815 km
Perigee altitude
122.413 km
Semi-major axis
6,816.251 km
Eccentricity
0.04632
Inclination
24.045°
RAAN
299.6206°
Arg. of periapsis
324.4469°
True anomaly
35.56064°
Mean anomaly
32.5595°
Eccentric anomaly
34.04517°
Mean motion
3.85678 °/min
Orbital period
93.34 mins
BSTAR
0.00075566
Loading maneuver chart data...
Computing Atmospheric mass density...
Loading historical data...
Loading historical data...
Loading historical data...
Loading historical data...
Loading historical data...
Loading historical data...
Loading historical data...
Other satellites on launch #46 in the year 2014 (2014-08-05 UTC)

Documentation

Showing up to 5 results
|